TimeCDT,TemperatureF,Dew PointF,Humidity,Sea Level PressureIn,VisibilityMPH,Wind Direction,Wind SpeedMPH,Gust SpeedMPH,PrecipitationIn,Events,Conditions,WindDirDegrees,DateUTC
12:58 AM,67.6,64.9,91,30.21,10.0,SSE,5.8,-,N/A,,Clear,160,2013-04-27 05:58:00
1:58 AM,67.1,64.4,91,30.19,10.0,Calm,Calm,-,N/A,,Clear,0,2013-04-27 06:58:00
2:58 AM,64.2,62.4,94,30.17,10.0,ENE,3.5,-,N/A,,Clear,70,2013-04-27 07:58:00
3:58 AM,66.0,64.6,95,30.15,10.0,ESE,3.5,-,N/A,,Clear,120,2013-04-27 08:58:00
4:58 AM,66.0,64.6,95,30.14,10.0,East,4.6,-,N/A,,Clear,100,2013-04-27 09:58:00
5:58 AM,63.9,62.8,96,30.17,10.0,NE,4.6,-,N/A,,Clear,40,2013-04-27 10:58:00
6:03 AM,64.4,62.6,94,30.16,10.0,NE,3.5,-,N/A,,Clear,40,2013-04-27 11:03:00
6:08 AM,62.6,62.6,100,30.17,9.0,NNE,3.5,-,N/A,,Clear,20,2013-04-27 11:08:00
6:58 AM,63.7,62.6,96,30.19,8.0,NNE,3.5,-,N/A,,Clear,30,2013-04-27 11:58:00
7:58 AM,66.7,64.8,93,30.20,10.0,ENE,2.3,-,N/A,,Clear,60,2013-04-27 12:58:00
8:58 AM,71.8,66.4,83,30.20,10.0,SE,11.5,-,N/A,,Clear,130,2013-04-27 13:58:00
9:58 AM,74.8,65.3,72,30.19,10.0,SE,11.5,-,N/A,,Clear,140,2013-04-27 14:58:00
10:58 AM,75.9,66.2,72,30.21,10.0,ESE,12.7,-,N/A,,Clear,120,2013-04-27 15:58:00
11:58 AM,76.1,66.6,72,30.19,10.0,SE,13.8,-,N/A,,Clear,140,2013-04-27 16:58:00
12:58 PM,76.6,66.7,71,30.19,10.0,South,9.2,-,N/A,,Clear,180,2013-04-27 17:58:00
1:58 PM,76.3,66.9,73,30.18,10.0,South,8.1,-,N/A,,Clear,170,2013-04-27 18:58:00
2:58 PM,76.3,67.1,73,30.16,10.0,SSW,8.1,-,N/A,,Partly Cloudy,210,2013-04-27 19:58:00
3:58 PM,76.1,66.9,73,30.13,10.0,SSE,9.2,-,N/A,,Clear,160,2013-04-27 20:58:00
4:58 PM,75.4,66.6,74,30.12,10.0,South,8.1,-,N/A,,Partly Cloudy,170,2013-04-27 21:58:00
5:58 PM,74.1,66.9,78,30.10,10.0,SSE,9.2,-,N/A,,Clear,160,2013-04-27 22:58:00
6:58 PM,72.5,67.3,84,30.08,10.0,SSE,8.1,-,N/A,,Clear,160,2013-04-27 23:58:00
7:58 PM,72.0,67.6,86,30.07,10.0,South,9.2,17.3,N/A,,Clear,170,2013-04-28 00:58:00
8:58 PM,71.6,68.0,88,30.09,10.0,South,8.1,-,N/A,,Clear,170,2013-04-28 01:58:00
9:58 PM,71.4,68.4,90,30.10,10.0,South,3.5,-,N/A,,Scattered Clouds,170,2013-04-28 02:58:00
10:58 PM,71.4,68.7,91,30.09,10.0,SSE,6.9,-,N/A,,Clear,160,2013-04-28 03:58:00
11:58 PM,71.2,68.7,92,30.09,10.0,South,4.6,-,N/A,,Clear,180,2013-04-28 04:58:00